TDRS 5

Last updated on Sun Apr 12 2026 00:02:44 GMT+0000 (Coordinated Universal Time)

1 21639U 91054B 26101.53821725 .00000090 00000+0 00000+0 0 9990 2 21639 14.0798 354.2686 0008368 284.5585 307.2459 1.00265214127043
UTC large
Height (km)
Speed (km/s)
/
Latitude / Longitude
Inclination (degrees)
Orbital Period (minutes)
Azimuth
Elevation
Range (km)
Doppler Factor

Next 0 passes for location: London (51.5072 / 0.1276)

Sorry there are no passes over London.
TDRS 5